User: anonymous   Login
Location: C�mpuri de-Sus
(45.9500°N, 22.5500°E)
Time: 09:11:42
(UTC+00:00)
Language:

Cosmos 2360 Rocket - Orbit

View from above orbital plane
View from above orbital plane
View from above satellite
View from above satellite

Ground track
Ground track

The orbit data is extracted from the following two-line orbital elements,

1 25407U 98045B   22024.67105530  .00000104  00000-0  77125-4 0  9992
2 25407  71.0121 105.5584 0007043 178.3755 181.7392 14.15851215214056
Epoch (UTC): 24 January 2022 16:06:19
Eccentricity: 0.0007043
inclination: 71.0121°
perigee height: 834 km
apogee height: 844 km
right ascension of ascending node: 105.5584°
argument of perigee: 178.3755°
revolutions per day: 14.15851215
mean anomaly at epoch: 181.7392°
orbit number at epoch: 21405

The dashed part of the orbit path shows where the satellite is in the earth's shadow,  

DLR